Starlink 11614

operational
NORAD ID: 63270 Int'l Des: 2025-053 Owner: SPXS Country: US Constellation: starlink
LEOCIRCULAR

About Starlink 11614

Description loading...

Live Position

Loading 3D Globe...

Upcoming Passes

Altitude History

Altitude vs Time

uPlot chart will show altitude changes over time

Two-Line Element Set

1 63270U 25053F 25352.08870366 .00179887 00000-0 13711-2 0 9993
2 63270 43.0033 244.2852 0003446 267.5861 92.4612 15.70908939 44836
Epoch: Dec 18, 2025 • Age: 19 hours

Current Status

Altitude 355.7 km
Velocity 7.70 km/s
Sub-Earth Point 16.53°N, 3.11°W
Launch Date Mar 15, 2025
Age 0.7 years
Type internet

Technical Details

Classification Payload
Mass 960.00 kg
Dry Mass 910.00 kg
Total Mass 960.00 kg
Length 0.30 m
Diameter 4.10 m
Span 29.00 m
Shape Box + pan
Manufacturer SPXS
Bus Type Starlink V2MD
Phase Status In Orbit
Owner/State SPXS/US

Large Constellations

Loading constellations...